This demonstration page uses our WeatherBlox Daily Observations layout. Learn more.

Left ArrowRight Arrow

Hourly Observations for October 31, 2015

Temp ( °F °C ) Dew Point ( °F °C ) Humidity (%) Winds ( mph kmh ) Pressure ( in mb ) Visibility ( mi km ) Precip ( " mm )
12:53 am 00:53 Clear 47 8.3 44 6.7 90 90 Calm 30.07 1018 10 16 0.00 0.00
1:53 am 01:53 Clear 46 7.8 43 6.1 89 89 Calm 30.07 1018 10 16 0.00 0.00
2:53 am 02:53 Clear 47 8.3 44 6.7 90 90 Calm 30.07 1018 10 16 0.00 0.00
3:53 am 03:53 Clear 49 9.4 45 7.2 86 86 ENE 3 6 30.08 1019 10 16 0.00 0.00
4:53 am 04:53 Clear 47 8.3 45 7.2 93 93 Calm 30.06 1018 10 16 0.00 0.00
5:53 am 05:53 Clear 49 9.4 46 7.8 90 90 Calm 30.08 1019 10 16 0.00 0.00
6:53 am 06:53 Clear 50 10 46 7.8 86 86 W 6 9 30.09 1019 10 16 0.00 0.00
7:53 am 07:53 Mostly Clear 50 10 47 8.3 89 89 NNE 5 7 30.07 1018 10 16 0.00 0.00
8:53 am 08:53 Mostly Cloudy 53 11.7 49 9.4 86 86 NE 5 7 30.09 1019 10 16 0.00 0.00
9:53 am 09:53 Cloudy 56 13.3 50 10 81 81 NNE 3 6 30.11 1020 10 16 0.00 0.00
10:53 am 10:53 Cloudy 57 13.9 50 10 78 78 NE 5 7 30.12 1020 10 16 0.00 0.00
11:53 am 11:53 Cloudy 60 15.6 49 9.4 67 67 E 8 13 30.12 1020 10 16 0.00 0.00
12:53 pm 12:53 Mostly Sunny 62 16.7 49 9.4 62 62 ENE 9 15 30.12 1020 10 16 0.00 0.00
1:53 pm 13:53 Mostly Cloudy 63 17.2 51 10.6 65 65 E 7 11 30.08 1019 10 16 0.00 0.00
2:53 pm 14:53 Mostly Sunny 63 17.2 52 11.1 68 68 ENE 7 11 30.07 1018 10 16 0.00 0.00
3:28 pm 15:28 Mostly Cloudy 63 17 52 11 68 68 E 8 13 30.06 1018 10 16 0.00 0.00
3:53 pm 15:53 Cloudy 63 17.2 52 11.1 68 68 E 8 13 30.05 1018 10 16 0.00 0.00
4:53 pm 16:53 Cloudy 63 17.2 52 11.1 68 68 ENE 9 15 30.04 1017 10 16 0.00 0.00
5:12 pm 17:12 Mostly Cloudy 63 17 54 12 73 73 E 6 9 30.03 1017 10 16 0.00 0.00
5:53 pm 17:53 Mostly Cloudy 62 16.7 53 11.7 73 73 E 6 9 30.02 1017 10 16 0.00 0.00
6:53 pm 18:53 Mostly Cloudy 61 16.1 53 11.7 75 75 E 7 11 30.03 1017 10 16 0.00 0.00
7:53 pm 19:53 Clear 60 15.6 53 11.7 78 78 E 6 9 30.03 1017 10 16 0.00 0.00
8:53 pm 20:53 Mostly Clear 59 15 52 11.1 78 78 E 8 13 30.01 1016 10 16 0.00 0.00
9:53 pm 21:53 Cloudy 60 15.6 52 11.1 75 75 Calm 30.02 1017 10 16 0.00 0.00
10:53 pm 22:53 Cloudy with Light Rain 59 15 53 11.7 81 81 NE 3 6 30.01 1016 10 16 0.00 0.03

Powered by AerisWeather